Погода в Милоградовке

Россия / Омская область     54°05′37″N   73°40′16″E
темп.,
°C
ветер,
м/с
пор.,
м/с
влажн.,
%
обл.,
%
осадки,
мм/ч
давл.,
гПа
погр.,
м
24 июля, сб
сб2400:00+22юв23490 0.0 100517
03:00+20юв33540 0.0 100520
06:00+20ююв33600 0.0 100624
09:00+25ю23510 0.0 1006311
12:00+30ююв32394 0.0 1006997
15:00+31вюв013511 0.0 10061506
18:00+31всв223987 0.0 10061417
21:00+27вюв344772 0.0 100654
25 июля, вс
вс2500:00+25юв474844 0.0 1006114
03:00+23ююв4954100 0.0 1005164
06:00+21юв3565100 0.3 100589
09:00+24юв476390 1.1 1004216
12:00+30юв784072 1.1 10031071
15:00+31юв5735100 0.0 10011107
18:00+29з810467 0.0 1001890
21:00+21зсз915773 0.0 1003713
26 июля, пн
пн2600:00+18зсз8148332 0.0 1004681
03:00+18сз8118288 0.0 1004919
06:00+16сз81280100 0.1 1006951
09:00+17сз9127388 0.0 1008974
12:00+19сз9116164 0.0 10091412
15:00+21ссз8104119 0.0 10092129
18:00+22сз793616 0.0 10102530
21:00+19сз4943100 0.0 1010341
27 июля, вт
вт2700:00+14сз511575 0.0 1012338
03:00+11зсз410675 0.0 1012213
06:00+14з4954100 0.0 1012392
09:00+14з5860100 0.0 1013446
12:00+17зсз5648100 0.0 10131386
15:00+20з573995 0.0 10132461
18:00+16з355714 0.0 1013255
21:00+15зюз466259 0.0 101385
28 июля, ср
ср2800:00+15зюз475570 0.0 1013152
03:00+14юз4855100 0.0 1012172
06:00+13юз4858100 0.0 1012144
09:00+18з475284 0.0 1012596
12:00+18юз3558100 0.1 1012439
15:00+22зюз674487 0.0 10112124
18:00+22зюз354160 0.0 10102037
21:00+17сз226521 0.0 101151